SCP
0 0 0 0 0 0 0 0 0 0 0 0 0 0 -0 -0 0 0 0 0 -0 -0 -0 -0 -0 -0 -0 -0 -0 -0 -0 -0 -0 -0 -0 -0 -0 -0 -0 -0 -0 -0 -0 -0 -0 -0 -0 -0 -0
0 0 0 0 0 0 0 0 0 0 0 0 0 0 0 0 0 0 0 -0 -0 -0 -0 -0 -0 -0 -0 -0 -0 -0 -0 -0 -0 -0 -0 -0 -0 -0 -0 -0 -0 -0 -0 -0 -0 -0 -0 -0 -0
0 0 0 0 0 0 0 0 0 0 0 0 0 0 0 0 0 0 0 0 0 0 0 0 -0 -0 -0 -0 -0 -0 -0 -0 -0 -0 -0 -0 -0 -0 -0 -0 -0 0 0 0 0 0 0 0 0
0 0 0 0 0 0 0 0 0 0 0 0 0 0 0 0 0 0 0 0 0 0 0 0 -0 -0 -0 -0 -0 -0 -0 -0 -0 -0 -0 -0 -0 -0 -0 -0 0 0 0 0 0 0 0 0 0
0 0 0 0 0 0 0 0 0 0 0 0 0 0 0 0 0 0 0 0 0 0 0 0 -0 -0 -0 -0 -0 -0 -0 -0 -0 -0 -0 -0 -0 -0 -0 -0 0 0 0 0 0 0 0 0 0
0 0 0 0 0 0 0 0 0 0 0 0 0 0 0 0 0 0 0 0 0 0 0 0 0 -0 -0 -0 -0 -0 -0 -0 -0 -0 -0 -0 -0 -0 -0 -0 -0 -0 0 0 0 0 0 0 0
0 0 0 0 0 0 0 0 0 0 0 0 0 0 0 0 0 0 0 0 0 0 0 0 0 0 0 -0 -0 -0 -0 -0 -0 -0 -0 -0 -0 -0 -0 -0 -0 -0 -0 0 0 0 0 0 0
0 0 0 0 0 0 0 0 0 0 0 0 0 0 0 0 0 0 0 0 0 0 0 0 0 0 0 0 -0 -0 -0 -0 -0 -0 -0 -0 -0 -0 -0 -0 -0 -0 -0 0 0 0 0 0 0
0 0 0 0 0 0 0 0 0 0 0 0 0 0 0 0 0 0 0 0 0 0 0 0 0 0 0 0 0 0 -0 -0 -0 0 -0 0 0 0 0 -0 -0 -0 -0 -0 -0 0 0 0 0
0 0 0 0 0 0 0 0 0 0 0 0 0 0 0 0 0 0 0 0 0 0 0 0 0 0 0 0 0 0 0 0 0 0 0 0 0 0 0 0 0 0 -0 0 0 0 0 0 0
0 0 0 0 -0 0 0 -0 0 0 0 0 0 0 0 0 0 0 0 0 0 0 0 0 0 0 0 0 0 0 0 0 0 0 0 0 0 0 0 0 0 0 0 0 0 0 0 0 0
0 0 0 -0 -0 0 0 0 0 0 0 0 0 0 0 0 0 0 0 0 0 0 0 0 0 0 0 0 0 0 0 0 0 0 0 0 0 0 0 0 0 0 0 0 0 0 0 0 0
-0 -0 0 -0 0 0 -0 0 0 0 0 0 0 0 0 0 0 0 0 0 0 0 0 0 0 0 0 0 0 0 0 0 0 0 0 0 0 0 0 0 0 0 0 0 0 0 0 0 0
0 0 -0 -0 -0 0 0 0 0 0 0 0 0 0 0 0 0 0 0 0 0 0 0 0 0 0 0 0 0 0 0 0 0 0 0 0 0 0 0 0 0 0 0 0 0 0 0 0 0
0 0 -0 -0 -0 -0 -0 -0 0 -0 -0 0 0 0 0 0 0 -0 0 0 0 0 0 0 0 0 0 0 0 0 0 0 0 0 0 0 0 0 0 0 0 0 0 0 0 0 0 0 0
-0 -0 0 -0 -0 -0 -0 -0 -0 -0 -0 -0 0 0 0 -0 -0 -0 -0 -0 -0 0 0 0 0 0 0 0 0 0 0 0 0 0 0 0 0 0 0 0 0 0 0 0 0 0 0 0 0
0 -0 -0 -0 -0 -0 -0 0 0 -0 -0 -0 -0 -0 -0 -0 -0 -0 -0 -0 0 0 0 0 0 0 0 0 0 0 0 0 0 0 0 0 0 0 0 0 0 0 0 0 0 0 -0 -0 0
0 -0 -0 0 -0 -0 -0 0 0 0 0 -0 -0 -0 -0 0 0 -0 -0 -0 -0 -0 0 0 0 0 0 0 0 0 0 0 0 0 0 0 0 0 0 0 0 0 0 0 0 0 0 -0 -0
0 0 -0 -0 0 0 0 0 -0 -0 -0 -0 -0 -0 -0 -0 -0 -0 -0 -0 -0 -0 -0 -0 -0 0 0 0 0 0 -0 -0 0 0 0 0 0 0 0 0 0 0 -0 -0 -0 -0 -0 -0 -0
0 0 -0 -0 -0 -0 -0 -0 0 0 0 0 0 -0 -0 -0 -0 -0 -0 -0 -0 -0 -0 -0 -0 -0 -0 -0 -0 -0 -0 -0 -0 -0 -0 -0 -0 -0 -0 -0 -0 -0 -0 -0 -0 -0 -0 -0 -0
0 0 0 -0 -0 -0 -0 -0 -0 0 0 0 0 0 0 0 -0 -0 -0 -0 -0 -0 -0 -0 -0 -0 -0 -0 -0 -0 -0 -0 0 0 -0 -0 -0 -0 -0 -0 -0 -0 -0 -0 -0 -0 -0 -0 -0
0 0 0 0 0 -0 0 -0 -0 0 0 0 0 -0 -0 -0 0 -0 -0 -0 -0 -0 -0 -0 -0 -0 -0 -0 -0 -0 -0 -0 -0 -0 -0 -0 -0 -0 -0 -0 -0 -0 -0 -0 -0 -0 -0 -0 -0
0 0 0 0 0 0 0 0 -0 -0 0 0 -0 -0 -0 0 0 0 0 0 0 0 0 -0 -0 -0 0 0 0 -0 -0 -0 -0 -0 -0 -0 -0 -0 -0 -0 -0 -0 -0 -0 -0 -0 -0 -0 -0
0 0 0 0 0 0 0 0 0 -0 -0 -0 -0 -0 -0 0 0 0 0 0 0 0 0 0 0 0 0 0 0 0 0 0 0 0 0 -0 -0 -0 -0 -0 0 -0 -0 -0 -0 -0 -0 -0 -0
0 0 0 0 0 0 0 0 -0 0 0 0 -0 -0 0 0 0 0 0 0 0 0 0 0 0 0 0 0 0 0 0 0 0 0 0 0 0 0 0 0 0 0 0 0 0 0 -0 -0 -0
0 0 0 0 0 0 0 0 0 0 0 0 -0 -0 -0 -0 -0 -0 0 0 0 0 0 0 0 0 0 0 0 0 0 0 0 0 0 0 0 0 0 0 0 0 0 0 0 0 0 0 0
0 0 0 0 0 0 0 0 0 0 0 0 0 0 -0 0 0 0 0 0 0 0 0 0 0 0 0 0 0 0 0 0 0 0 0 0 0 0 0 0 0 0 0 0 0 0 0 0 0
0 0 0 0 0 0 0 0 0 0 0 0 0 0 0 0 0 0 0 0 0 0 0 0 0 0 0 0 0 0 0 0 0 0 0 0 0 0 0 0 0 0 0 0 0 0 0 0 0
0 0 0 0 0 0 0 0 0 0 0 0 0 0 0 0 0 0 0 0 0 0 0 0 0 0 0 0 0 0 0 0 0 0 0 0 0 0 0 0 0 0 0 0 0 0 0 0 0
0 0 0 0 0 0 0 0 0 0 0 0 0 0 0 0 0 0 0 0 0 0 0 0 0 0 0 0 0 0 0 0 0 0 0 0 0 0 0 0 0 0 0 0 0 0 0 0 0
Wind_Speed_500mb
12 14 29 24 6 6 8 15 9 28 11 27 30 38 37 31 10 10 23 23 17 15 40 32 38 17 9 13 15 23 26 26 26 26 26 24 21 18 16 16 19 19 18 17 18 22 15 11 9
8 10 19 15 5 4 4 11 19 22 28 35 31 21 31 12 32 15 7 24 17 21 38 33 50 26 14 18 26 27 25 23 24 26 26 25 23 19 16 12 11 13 18 21 21 22 19 11 7
5 7 17 5 9 6 4 19 25 25 42 16 16 31 13 25 29 25 29 23 14 22 31 38 41 25 21 27 30 27 25 22 25 26 28 29 28 25 19 13 8 5 1 6 13 14 16 12 5
7 15 15 8 15 11 8 20 37 24 21 48 28 28 21 35 26 32 22 17 26 20 23 31 34 33 22 22 24 21 22 20 21 21 26 28 29 28 26 23 17 12 9 8 9 12 18 13 6
10 10 8 11 10 12 26 23 48 40 14 36 6 14 17 31 33 26 23 25 33 34 20 32 33 32 25 22 19 16 18 18 19 20 22 21 20 22 24 24 22 19 18 19 18 21 17 11 13
9 8 7 9 12 13 18 50 29 41 37 44 28 23 18 26 43 42 32 46 39 44 32 38 30 36 31 22 16 13 15 16 17 17 18 16 16 15 18 17 18 17 17 17 18 20 21 19 19
10 6 8 18 18 9 7 8 49 36 40 54 19 14 14 42 38 51 49 47 54 50 44 47 35 37 37 22 14 12 10 12 13 12 13 14 15 16 16 16 17 14 11 12 13 13 17 20 20
10 8 9 15 6 8 11 13 37 43 43 11 16 18 12 28 29 40 51 59 60 61 61 49 45 39 43 31 20 16 9 8 6 8 12 11 10 11 13 16 16 14 15 14 14 13 13 14 16
9 9 10 10 7 11 9 8 33 32 52 62 30 35 20 25 35 42 52 55 61 64 59 57 58 46 51 39 25 24 20 19 13 10 5 2 0 6 9 17 18 15 14 17 17 16 16 15 9
20 9 10 14 21 24 42 40 24 24 40 47 45 38 33 35 43 50 59 59 60 60 57 58 56 50 47 46 39 42 33 35 24 22 20 16 14 7 4 5 14 22 19 15 17 18 17 19 16
15 12 31 37 50 57 48 55 18 31 24 29 25 39 42 46 47 55 57 55 53 51 55 54 48 48 46 45 43 40 39 40 40 37 31 28 25 18 16 16 13 15 15 15 18 23 26 25 29
20 36 27 25 19 31 24 27 41 40 19 22 27 33 34 39 40 58 52 52 52 57 49 43 43 45 45 44 47 39 35 33 30 34 32 32 31 30 31 31 28 29 24 24 24 21 22 25 32
38 41 51 63 71 62 69 49 31 38 34 39 44 49 49 51 49 42 48 44 46 51 51 50 43 35 38 38 40 40 41 41 40 35 33 28 35 39 36 36 36 36 37 36 34 33 30 28 25
38 50 30 29 39 32 38 25 7 24 35 42 39 29 33 36 40 38 37 42 42 45 49 45 47 46 44 42 40 40 42 44 42 42 44 45 42 40 39 40 42 40 43 43 44 44 42 39 37
53 32 30 19 16 19 22 24 11 20 28 28 18 21 29 33 34 31 36 37 46 41 43 42 40 39 44 46 46 47 46 45 47 47 44 43 43 44 43 42 43 45 46 45 46 45 45 43 43
6 8 7 8 16 10 10 2 8 15 10 2 12 18 27 28 25 28 31 34 40 42 41 39 36 35 36 41 43 43 46 46 47 47 48 47 47 47 47 48 49 49 49 50 52 56 55 54 52
5 8 14 10 13 9 2 10 19 18 12 4 8 9 13 18 21 25 29 32 33 38 42 40 38 37 38 41 44 44 47 49 49 48 49 50 50 51 52 53 54 53 55 57 59 59 64 66 63
8 11 11 11 11 30 22 16 18 17 17 14 12 8 9 11 11 13 18 23 26 32 36 38 40 38 39 38 39 40 44 46 46 49 49 50 51 53 55 56 58 60 61 63 65 66 65 69 73
24 17 15 6 15 14 13 10 12 20 18 18 14 12 8 8 10 12 12 13 17 23 27 34 34 36 35 37 40 42 45 45 46 46 45 48 51 54 57 61 62 64 67 70 71 73 74 76 80
17 15 6 6 11 12 12 10 13 29 27 26 22 17 13 7 4 6 7 9 11 16 23 26 29 31 34 36 39 40 40 43 44 43 45 48 49 52 56 59 63 65 67 68 71 75 79 77 78
12 9 5 8 6 7 12 3 12 22 25 32 27 22 17 11 5 3 6 8 10 11 16 18 20 25 29 30 31 32 34 35 38 41 43 45 45 48 51 54 57 60 64 67 68 70 70 72 70
8 7 9 8 4 4 7 6 12 14 15 31 37 34 29 23 14 6 3 5 6 7 7 11 15 18 20 23 26 31 36 38 40 41 42 43 45 47 50 52 55 57 59 61 63 64 64 66 69
7 2 4 5 6 8 6 7 10 17 15 23 47 49 41 34 24 13 5 4 5 4 3 5 9 13 16 19 23 27 30 33 35 37 41 44 46 48 49 51 52 54 55 57 58 59 59 60 61
5 1 4 7 6 6 9 9 7 12 15 12 43 56 49 44 33 21 8 4 3 2 1 4 7 11 13 16 20 23 27 29 33 36 39 42 44 46 47 49 52 53 54 56 57 58 58 59 59
3 6 6 9 8 8 3 6 17 13 13 24 48 63 55 51 40 30 22 10 6 7 5 3 4 7 11 14 18 23 24 27 31 35 39 44 49 52 54 57 59 59 60 60 61 64 64 65 67
4 7 9 10 2 8 8 9 10 9 19 18 33 49 55 56 48 39 32 23 14 10 11 9 10 10 13 17 19 22 24 28 31 34 39 44 48 52 55 58 59 60 61 61 61 63 65 68 71
5 1 5 14 2 7 6 12 9 6 10 19 22 51 62 58 52 46 39 34 22 19 14 14 14 15 18 20 23 25 27 30 33 36 41 44 48 52 55 57 60 60 60 61 62 64 66 67 70
2 9 6 6 4 6 9 10 10 14 21 19 33 43 60 58 53 47 43 35 28 23 20 19 19 20 20 24 26 28 30 34 38 40 43 46 48 52 55 57 61 62 62 63 63 64 66 70 74
2 2 7 7 7 10 2 11 12 15 18 28 49 54 54 56 54 48 41 36 32 29 27 24 24 24 21 22 26 31 34 37 42 46 47 49 51 52 54 58 63 65 65 65 67 68 71 77 83
5 8 10 9 10 4 6 13 8 10 18 41 45 50 49 53 52 47 42 37 36 35 32 31 28 28 26 25 29 34 38 39 42 46 49 51 54 53 56 59 64 67 68 69 70 72 75 81 88
Wind_Direction_500mb
330 255 216 337 30 75 36 45 34 37 43 74 71 72 89 55 5 94 327 337 342 46 66 73 56 24 87 100 84 85 85 75 71 71 68 66 65 65 66 71 68 59 61 60 45 37 39 41 55
242 191 194 344 42 71 37 7 6 28 7 131 76 61 48 78 18 324 30 2 21 69 72 86 56 66 101 103 100 90 83 83 74 71 67 69 71 73 73 73 80 74 64 67 61 41 21 10 21
63 103 122 61 58 74 77 18 327 335 28 78 102 57 56 347 351 344 357 8 39 80 79 98 71 93 107 108 111 105 97 92 84 76 70 65 58 54 59 75 98 112 85 345 6 355 338 335 337
86 110 83 87 99 26 35 20 357 352 13 33 100 74 82 10 0 343 7 29 67 88 102 120 111 115 123 109 111 111 99 88 81 83 84 83 76 70 62 51 38 16 3 338 324 317 313 346 334
104 85 78 88 96 104 47 23 30 43 40 21 108 88 76 13 27 22 53 70 75 75 94 125 128 133 126 125 107 100 90 81 79 74 76 79 82 80 84 77 66 54 39 32 19 10 3 11 340
72 86 103 109 107 129 53 28 38 33 35 20 74 91 58 11 50 42 64 69 74 80 86 99 123 132 125 123 116 98 83 74 66 62 69 71 65 62 73 72 63 58 51 34 30 24 17 9 357
85 39 61 100 127 84 34 20 34 37 34 23 68 82 72 18 57 55 64 68 81 84 83 85 103 87 122 127 126 113 92 69 57 52 46 33 33 31 39 40 34 29 17 10 15 25 22 10 359
76 90 68 31 86 66 33 88 48 38 35 5 52 41 37 23 41 73 68 74 78 78 77 81 78 84 79 93 120 119 105 90 58 15 358 11 7 19 11 357 2 359 353 354 357 353 2 17 17
60 61 55 35 65 103 162 118 65 57 58 58 60 56 72 78 58 71 76 79 79 78 79 79 77 77 78 76 86 89 92 93 91 87 63 114 169 310 312 322 333 330 338 344 340 334 333 334 348
49 64 51 60 96 91 73 79 84 68 47 49 54 76 81 82 77 70 64 63 69 72 74 76 74 74 76 81 78 78 76 73 61 60 52 35 28 14 13 356 313 312 308 304 306 310 310 310 308
45 92 100 87 100 94 89 68 100 89 44 39 31 52 60 72 65 72 72 59 62 67 71 68 71 70 65 74 75 74 77 75 70 65 61 59 48 36 31 27 4 5 343 310 301 281 285 287 291
98 65 94 112 97 88 80 90 69 73 93 75 72 71 78 70 67 65 64 67 69 68 66 68 67 68 62 57 58 58 58 55 58 55 51 46 46 41 37 35 23 18 5 1 346 340 323 298 285
68 84 87 94 88 84 93 71 79 72 89 88 77 69 63 60 65 70 69 63 70 70 71 66 67 64 71 70 67 66 62 56 50 48 44 33 38 38 30 25 24 20 15 10 5 357 348 338 327
118 108 112 99 93 96 86 53 67 74 86 83 77 67 68 66 66 68 71 69 67 74 74 73 74 75 71 70 69 67 65 61 58 55 49 48 44 39 33 30 24 18 16 13 6 1 353 347 341
125 108 116 111 124 139 89 41 37 106 99 88 62 52 55 60 56 52 54 65 73 70 74 75 72 73 71 68 65 64 61 59 57 53 49 43 41 37 31 28 23 18 13 8 4 1 354 349 345
157 155 79 142 190 188 182 114 213 145 160 34 57 49 52 56 58 61 61 65 69 74 72 71 74 73 77 72 69 67 65 63 59 55 52 47 43 39 33 30 26 20 12 7 4 359 355 350 346
211 90 121 75 2 123 2 150 187 185 180 162 92 70 50 44 50 53 66 68 69 73 77 77 78 77 76 76 71 66 65 62 60 57 51 46 43 39 34 32 27 20 14 10 7 5 0 353 347
134 100 48 77 36 74 92 122 168 197 191 168 151 122 97 75 57 51 59 66 73 74 74 74 73 75 77 77 74 68 64 59 54 50 47 45 41 38 33 29 24 21 16 12 9 5 5 0 351
89 90 97 97 146 78 99 139 176 174 179 182 177 159 140 74 54 60 72 74 76 80 78 77 75 70 68 66 63 59 57 54 51 47 44 42 37 33 30 27 23 21 17 14 10 5 3 4 358
84 96 58 36 100 92 157 177 185 187 200 197 190 191 182 154 101 82 96 103 94 78 75 70 67 63 59 56 54 53 51 47 44 40 38 35 32 29 25 23 20 16 14 12 10 7 3 4 5
52 70 99 128 85 69 124 213 206 214 208 199 205 206 203 202 201 122 101 92 83 73 67 67 62 55 51 49 49 49 47 45 41 38 34 30 25 22 20 17 15 13 11 9 8 7 4 0 2
69 357 109 125 77 157 116 263 229 209 211 203 205 209 211 208 204 195 138 118 104 96 76 60 52 46 40 36 34 34 33 32 30 29 27 22 17 14 12 10 8 6 5 4 4 3 0 358 356
156 287 69 85 93 75 329 62 277 151 226 223 215 215 215 212 208 198 170 152 134 107 82 45 37 31 24 20 20 22 22 21 19 19 18 14 11 7 5 2 0 358 358 358 357 357 356 354 351
144 85 343 40 97 39 241 123 258 186 212 210 214 218 216 211 216 214 209 192 203 190 45 7 13 9 6 3 3 5 8 5 5 6 5 2 2 360 358 358 356 354 353 353 352 352 351 349 347
27 86 5 8 15 210 66 50 245 224 208 200 201 212 210 213 218 220 225 230 244 242 251 288 329 341 347 345 346 351 348 347 349 350 351 351 352 353 351 351 350 348 348 347 345 344 345 343 342
66 143 147 188 210 259 3 237 253 192 185 172 209 208 205 210 220 223 229 236 243 262 264 283 304 325 330 332 328 330 333 334 335 337 338 341 341 342 343 344 343 341 341 340 338 336 337 336 334
251 175 144 102 53 47 231 272 288 195 203 201 182 201 202 209 217 224 230 238 245 255 270 275 287 302 308 311 314 317 320 323 325 326 327 330 331 331 334 335 335 334 333 333 331 330 329 327 327
284 153 63 4 101 289 288 279 241 224 223 220 213 200 206 210 215 222 230 240 249 261 267 274 280 287 293 302 301 304 307 309 311 312 317 320 321 322 325 326 329 329 329 328 325 324 324 322 322
166 178 47 117 132 168 225 262 217 218 208 206 214 210 207 209 217 225 232 244 254 263 263 270 271 278 283 299 302 299 304 305 305 305 308 310 312 317 317 319 323 324 325 324 322 321 321 320 320
280 219 158 127 246 229 145 272 253 235 236 214 219 219 218 219 223 229 235 244 253 263 272 268 266 270 282 291 302 303 303 306 306 306 305 305 308 313 312 313 316 319 320 321 320 319 319 319 318
Wind_Speed_850mb
12 14 29 24 6 6 8 15 9 28 11 27 30 38 37 31 10 10 23 23 17 15 40 32 38 17 9 13 15 23 26 26 26 26 26 24 21 18 16 16 19 19 18 17 18 22 15 11 9
8 10 19 15 5 4 4 11 19 22 28 35 31 21 31 12 32 15 7 24 17 21 38 33 50 26 14 18 26 27 25 23 24 26 26 25 23 19 16 12 11 13 18 21 21 22 19 11 7
5 7 17 5 9 6 4 19 25 25 42 16 16 31 13 25 29 25 29 23 14 22 31 38 41 25 21 27 30 27 25 22 25 26 28 29 28 25 19 13 8 5 1 6 13 14 16 12 5
7 15 15 8 15 11 8 20 37 24 21 48 28 28 21 35 26 32 22 17 26 20 23 31 34 33 22 22 24 21 22 20 21 21 26 28 29 28 26 23 17 12 9 8 9 12 18 13 6
10 10 8 11 10 12 26 23 48 40 14 36 6 14 17 31 33 26 23 25 33 34 20 32 33 32 25 22 19 16 18 18 19 20 22 21 20 22 24 24 22 19 18 19 18 21 17 11 13
9 8 7 9 12 13 18 50 29 41 37 44 28 23 18 26 43 42 32 46 39 44 32 38 30 36 31 22 16 13 15 16 17 17 18 16 16 15 18 17 18 17 17 17 18 20 21 19 19
10 6 8 18 18 9 7 8 49 36 40 54 19 14 14 42 38 51 49 47 54 50 44 47 35 37 37 22 14 12 10 12 13 12 13 14 15 16 16 16 17 14 11 12 13 13 17 20 20
10 8 9 15 6 8 11 13 37 43 43 11 16 18 12 28 29 40 51 59 60 61 61 49 45 39 43 31 20 16 9 8 6 8 12 11 10 11 13 16 16 14 15 14 14 13 13 14 16
9 9 10 10 7 11 9 8 33 32 52 62 30 35 20 25 35 42 52 55 61 64 59 57 58 46 51 39 25 24 20 19 13 10 5 2 0 6 9 17 18 15 14 17 17 16 16 15 9
20 9 10 14 21 24 42 40 24 24 40 47 45 38 33 35 43 50 59 59 60 60 57 58 56 50 47 46 39 42 33 35 24 22 20 16 14 7 4 5 14 22 19 15 17 18 17 19 16
15 12 31 37 50 57 48 55 18 31 24 29 25 39 42 46 47 55 57 55 53 51 55 54 48 48 46 45 43 40 39 40 40 37 31 28 25 18 16 16 13 15 15 15 18 23 26 25 29
20 36 27 25 19 31 24 27 41 40 19 22 27 33 34 39 40 58 52 52 52 57 49 43 43 45 45 44 47 39 35 33 30 34 32 32 31 30 31 31 28 29 24 24 24 21 22 25 32
38 41 51 63 71 62 69 49 31 38 34 39 44 49 49 51 49 42 48 44 46 51 51 50 43 35 38 38 40 40 41 41 40 35 33 28 35 39 36 36 36 36 37 36 34 33 30 28 25
38 50 30 29 39 32 38 25 7 24 35 42 39 29 33 36 40 38 37 42 42 45 49 45 47 46 44 42 40 40 42 44 42 42 44 45 42 40 39 40 42 40 43 43 44 44 42 39 37
53 32 30 19 16 19 22 24 11 20 28 28 18 21 29 33 34 31 36 37 46 41 43 42 40 39 44 46 46 47 46 45 47 47 44 43 43 44 43 42 43 45 46 45 46 45 45 43 43
6 8 7 8 16 10 10 2 8 15 10 2 12 18 27 28 25 28 31 34 40 42 41 39 36 35 36 41 43 43 46 46 47 47 48 47 47 47 47 48 49 49 49 50 52 56 55 54 52
5 8 14 10 13 9 2 10 19 18 12 4 8 9 13 18 21 25 29 32 33 38 42 40 38 37 38 41 44 44 47 49 49 48 49 50 50 51 52 53 54 53 55 57 59 59 64 66 63
8 11 11 11 11 30 22 16 18 17 17 14 12 8 9 11 11 13 18 23 26 32 36 38 40 38 39 38 39 40 44 46 46 49 49 50 51 53 55 56 58 60 61 63 65 66 65 69 73
24 17 15 6 15 14 13 10 12 20 18 18 14 12 8 8 10 12 12 13 17 23 27 34 34 36 35 37 40 42 45 45 46 46 45 48 51 54 57 61 62 64 67 70 71 73 74 76 80
17 15 6 6 11 12 12 10 13 29 27 26 22 17 13 7 4 6 7 9 11 16 23 26 29 31 34 36 39 40 40 43 44 43 45 48 49 52 56 59 63 65 67 68 71 75 79 77 78
12 9 5 8 6 7 12 3 12 22 25 32 27 22 17 11 5 3 6 8 10 11 16 18 20 25 29 30 31 32 34 35 38 41 43 45 45 48 51 54 57 60 64 67 68 70 70 72 70
8 7 9 8 4 4 7 6 12 14 15 31 37 34 29 23 14 6 3 5 6 7 7 11 15 18 20 23 26 31 36 38 40 41 42 43 45 47 50 52 55 57 59 61 63 64 64 66 69
7 2 4 5 6 8 6 7 10 17 15 23 47 49 41 34 24 13 5 4 5 4 3 5 9 13 16 19 23 27 30 33 35 37 41 44 46 48 49 51 52 54 55 57 58 59 59 60 61
5 1 4 7 6 6 9 9 7 12 15 12 43 56 49 44 33 21 8 4 3 2 1 4 7 11 13 16 20 23 27 29 33 36 39 42 44 46 47 49 52 53 54 56 57 58 58 59 59
3 6 6 9 8 8 3 6 17 13 13 24 48 63 55 51 40 30 22 10 6 7 5 3 4 7 11 14 18 23 24 27 31 35 39 44 49 52 54 57 59 59 60 60 61 64 64 65 67
4 7 9 10 2 8 8 9 10 9 19 18 33 49 55 56 48 39 32 23 14 10 11 9 10 10 13 17 19 22 24 28 31 34 39 44 48 52 55 58 59 60 61 61 61 63 65 68 71
5 1 5 14 2 7 6 12 9 6 10 19 22 51 62 58 52 46 39 34 22 19 14 14 14 15 18 20 23 25 27 30 33 36 41 44 48 52 55 57 60 60 60 61 62 64 66 67 70
2 9 6 6 4 6 9 10 10 14 21 19 33 43 60 58 53 47 43 35 28 23 20 19 19 20 20 24 26 28 30 34 38 40 43 46 48 52 55 57 61 62 62 63 63 64 66 70 74
2 2 7 7 7 10 2 11 12 15 18 28 49 54 54 56 54 48 41 36 32 29 27 24 24 24 21 22 26 31 34 37 42 46 47 49 51 52 54 58 63 65 65 65 67 68 71 77 83
5 8 10 9 10 4 6 13 8 10 18 41 45 50 49 53 52 47 42 37 36 35 32 31 28 28 26 25 29 34 38 39 42 46 49 51 54 53 56 59 64 67 68 69 70 72 75 81 88
Wind_Direction_850mb
330 255 216 337 30 75 36 45 34 37 43 74 71 72 89 55 5 94 327 337 342 46 66 73 56 24 87 100 84 85 85 75 71 71 68 66 65 65 66 71 68 59 61 60 45 37 39 41 55
242 191 194 344 42 71 37 7 6 28 7 131 76 61 48 78 18 324 30 2 21 69 72 86 56 66 101 103 100 90 83 83 74 71 67 69 71 73 73 73 80 74 64 67 61 41 21 10 21
63 103 122 61 58 74 77 18 327 335 28 78 102 57 56 347 351 344 357 8 39 80 79 98 71 93 107 108 111 105 97 92 84 76 70 65 58 54 59 75 98 112 85 345 6 355 338 335 337
86 110 83 87 99 26 35 20 357 352 13 33 100 74 82 10 0 343 7 29 67 88 102 120 111 115 123 109 111 111 99 88 81 83 84 83 76 70 62 51 38 16 3 338 324 317 313 346 334
104 85 78 88 96 104 47 23 30 43 40 21 108 88 76 13 27 22 53 70 75 75 94 125 128 133 126 125 107 100 90 81 79 74 76 79 82 80 84 77 66 54 39 32 19 10 3 11 340
72 86 103 109 107 129 53 28 38 33 35 20 74 91 58 11 50 42 64 69 74 80 86 99 123 132 125 123 116 98 83 74 66 62 69 71 65 62 73 72 63 58 51 34 30 24 17 9 357
85 39 61 100 127 84 34 20 34 37 34 23 68 82 72 18 57 55 64 68 81 84 83 85 103 87 122 127 126 113 92 69 57 52 46 33 33 31 39 40 34 29 17 10 15 25 22 10 359
76 90 68 31 86 66 33 88 48 38 35 5 52 41 37 23 41 73 68 74 78 78 77 81 78 84 79 93 120 119 105 90 58 15 358 11 7 19 11 357 2 359 353 354 357 353 2 17 17
60 61 55 35 65 103 162 118 65 57 58 58 60 56 72 78 58 71 76 79 79 78 79 79 77 77 78 76 86 89 92 93 91 87 63 114 169 310 312 322 333 330 338 344 340 334 333 334 348
49 64 51 60 96 91 73 79 84 68 47 49 54 76 81 82 77 70 64 63 69 72 74 76 74 74 76 81 78 78 76 73 61 60 52 35 28 14 13 356 313 312 308 304 306 310 310 310 308
45 92 100 87 100 94 89 68 100 89 44 39 31 52 60 72 65 72 72 59 62 67 71 68 71 70 65 74 75 74 77 75 70 65 61 59 48 36 31 27 4 5 343 310 301 281 285 287 291
98 65 94 112 97 88 80 90 69 73 93 75 72 71 78 70 67 65 64 67 69 68 66 68 67 68 62 57 58 58 58 55 58 55 51 46 46 41 37 35 23 18 5 1 346 340 323 298 285
68 84 87 94 88 84 93 71 79 72 89 88 77 69 63 60 65 70 69 63 70 70 71 66 67 64 71 70 67 66 62 56 50 48 44 33 38 38 30 25 24 20 15 10 5 357 348 338 327
118 108 112 99 93 96 86 53 67 74 86 83 77 67 68 66 66 68 71 69 67 74 74 73 74 75 71 70 69 67 65 61 58 55 49 48 44 39 33 30 24 18 16 13 6 1 353 347 341
125 108 116 111 124 139 89 41 37 106 99 88 62 52 55 60 56 52 54 65 73 70 74 75 72 73 71 68 65 64 61 59 57 53 49 43 41 37 31 28 23 18 13 8 4 1 354 349 345
157 155 79 142 190 188 182 114 213 145 160 34 57 49 52 56 58 61 61 65 69 74 72 71 74 73 77 72 69 67 65 63 59 55 52 47 43 39 33 30 26 20 12 7 4 359 355 350 346
211 90 121 75 2 123 2 150 187 185 180 162 92 70 50 44 50 53 66 68 69 73 77 77 78 77 76 76 71 66 65 62 60 57 51 46 43 39 34 32 27 20 14 10 7 5 0 353 347
134 100 48 77 36 74 92 122 168 197 191 168 151 122 97 75 57 51 59 66 73 74 74 74 73 75 77 77 74 68 64 59 54 50 47 45 41 38 33 29 24 21 16 12 9 5 5 0 351
89 90 97 97 146 78 99 139 176 174 179 182 177 159 140 74 54 60 72 74 76 80 78 77 75 70 68 66 63 59 57 54 51 47 44 42 37 33 30 27 23 21 17 14 10 5 3 4 358
84 96 58 36 100 92 157 177 185 187 200 197 190 191 182 154 101 82 96 103 94 78 75 70 67 63 59 56 54 53 51 47 44 40 38 35 32 29 25 23 20 16 14 12 10 7 3 4 5
52 70 99 128 85 69 124 213 206 214 208 199 205 206 203 202 201 122 101 92 83 73 67 67 62 55 51 49 49 49 47 45 41 38 34 30 25 22 20 17 15 13 11 9 8 7 4 0 2
69 357 109 125 77 157 116 263 229 209 211 203 205 209 211 208 204 195 138 118 104 96 76 60 52 46 40 36 34 34 33 32 30 29 27 22 17 14 12 10 8 6 5 4 4 3 0 358 356
156 287 69 85 93 75 329 62 277 151 226 223 215 215 215 212 208 198 170 152 134 107 82 45 37 31 24 20 20 22 22 21 19 19 18 14 11 7 5 2 0 358 358 358 357 357 356 354 351
144 85 343 40 97 39 241 123 258 186 212 210 214 218 216 211 216 214 209 192 203 190 45 7 13 9 6 3 3 5 8 5 5 6 5 2 2 360 358 358 356 354 353 353 352 352 351 349 347
27 86 5 8 15 210 66 50 245 224 208 200 201 212 210 213 218 220 225 230 244 242 251 288 329 341 347 345 346 351 348 347 349 350 351 351 352 353 351 351 350 348 348 347 345 344 345 343 342
66 143 147 188 210 259 3 237 253 192 185 172 209 208 205 210 220 223 229 236 243 262 264 283 304 325 330 332 328 330 333 334 335 337 338 341 341 342 343 344 343 341 341 340 338 336 337 336 334
251 175 144 102 53 47 231 272 288 195 203 201 182 201 202 209 217 224 230 238 245 255 270 275 287 302 308 311 314 317 320 323 325 326 327 330 331 331 334 335 335 334 333 333 331 330 329 327 327
284 153 63 4 101 289 288 279 241 224 223 220 213 200 206 210 215 222 230 240 249 261 267 274 280 287 293 302 301 304 307 309 311 312 317 320 321 322 325 326 329 329 329 328 325 324 324 322 322
166 178 47 117 132 168 225 262 217 218 208 206 214 210 207 209 217 225 232 244 254 263 263 270 271 278 283 299 302 299 304 305 305 305 308 310 312 317 317 319 323 324 325 324 322 321 321 320 320
280 219 158 127 246 229 145 272 253 235 236 214 219 219 218 219 223 229 235 244 253 263 272 268 266 270 282 291 302 303 303 306 306 306 305 305 308 313 312 313 316 319 320 321 320 319 319 319 318